| time (UTC) | temp C | wind direction | speed KPH | gust KPH | rain 1hr cm | rain 24hr cm | rain mn cm | humidity % | barometer mb |
| 20260507151550 | 10 | 236 | 0.0 | 0.0 | 0.00 | 0.00 | 0.00 | 57 | 1010.8 |
| 20260507151049 | 11 | 261 | 0.0 | 0.0 | 0.00 | 0.00 | 0.00 | 57 | 1010.8 |
| 20260507150549 | 10 | 345 | 0.0 | 0.0 | 0.00 | 0.00 | 0.00 | 58 | 1010.7 |
| 20260507150047 | 10 | 288 | 0.0 | 0.0 | 0.00 | 0.00 | 0.00 | 58 | 1010.8 |
| 20260507145546 | 10 | 222 | 0.0 | 0.0 | 0.00 | 0.00 | 0.00 | 61 | 1010.9 |
| 20260507145045 | 10 | 262 | 0.0 | 0.0 | 0.00 | 0.00 | 0.00 | 62 | 1010.9 |
| 20260507144549 | 10 | 264 | 0.0 | 0.0 | 0.00 | 0.00 | 0.00 | 62 | 1010.8 |
| 20260507144044 | 10 | 293 | 0.0 | 0.0 | 0.00 | 0.00 | 0.00 | 62 | 1010.9 |
| 20260507143543 | 10 | 196 | 0.0 | 0.0 | 0.00 | 0.00 | 0.00 | 62 | 1010.9 |
| 20260507143043 | 10 | 228 | 0.0 | 0.0 | 0.00 | 0.00 | 0.00 | 63 | 1010.9 |
| 20260507142543 | 10 | 261 | 0.0 | 0.0 | 0.00 | 0.00 | 0.00 | 64 | 1010.9 |
| 20260507142043 | 10 | 259 | 0.0 | 0.0 | 0.00 | 0.00 | 0.00 | 64 | 1010.9 |
| 20260507141542 | 10 | 162 | 0.0 | 0.0 | 0.00 | 0.00 | 0.00 | 66 | 1011.0 |
| 20260507141040 | 9 | 162 | 0.0 | 0.0 | 0.00 | 0.00 | 0.00 | 66 | 1011.0 |
| 20260507140539 | 9 | 162 | 0.0 | 0.0 | 0.00 | 0.00 | 0.00 | 67 | 1011.2 |
| 20260507140057 | 8 | 161 | 0.0 | 0.0 | 0.00 | 0.00 | 0.00 | 69 | 1011.2 |
| 20260507135538 | 8 | 163 | 0.0 | 0.0 | 0.00 | 0.00 | 0.00 | 67 | 1011.2 |
| 20260507135038 | 8 | 162 | 0.0 | 0.0 | 0.00 | 0.00 | 0.00 | 67 | 1011.2 |
| 20260507134538 | 8 | 162 | 0.0 | 0.0 | 0.00 | 0.00 | 0.00 | 67 | 1011.3 |
| 20260507134036 | 8 | 162 | 0.0 | 0.0 | 0.00 | 0.00 | 0.00 | 68 | 1011.2 |
| 20260507133537 | 8 | 162 | 0.0 | 0.0 | 0.00 | 0.00 | 0.00 | 69 | 1011.3 |
| 20260507133035 | 7 | 163 | 0.0 | 0.0 | 0.00 | 0.00 | 0.00 | 67 | 1011.4 |
| 20260507132534 | 7 | 163 | 0.0 | 0.0 | 0.00 | 0.00 | 0.00 | 67 | 1011.4 |
| 20260507132034 | 7 | 145 | 0.0 | 0.0 | 0.00 | 0.00 | 0.00 | 67 | 1011.5 |
| 20260507131535 | 7 | 148 | 0.0 | 0.0 | 0.00 | 0.00 | 0.00 | 68 | 1011.5 |
| 20260507131031 | 7 | 153 | 0.0 | 0.0 | 0.00 | 0.00 | 0.00 | 68 | 1011.5 |
| 20260507130534 | 6 | 82 | 0.0 | 0.0 | 0.00 | 0.00 | 0.00 | 75 | 1011.5 |
| 20260507130028 | 6 | 82 | 0.0 | 0.0 | 0.00 | 0.00 | 0.00 | 79 | 1011.5 |
| 20260507125532 | 6 | 82 | 0.0 | 0.0 | 0.00 | 0.00 | 0.00 | 81 | 1011.6 |
| 20260507125026 | 5 | 83 | 0.0 | 0.0 | 0.00 | 0.00 | 0.00 | 85 | 1011.7 |
| 20260507124527 | 5 | 83 | 0.0 | 0.0 | 0.00 | 0.00 | 0.00 | 87 | 1011.7 |
| 20260507124027 | 5 | 83 | 0.0 | 0.0 | 0.00 | 0.00 | 0.00 | 88 | 1011.7 |
| 20260507123526 | 5 | 40 | 0.0 | 0.0 | 0.00 | 0.00 | 0.00 | 90 | 1011.8 |
| 20260507123032 | 5 | 40 | 0.0 | 0.0 | 0.00 | 0.00 | 0.00 | 91 | 1011.6 |
| 20260507122528 | 5 | 40 | 0.0 | 0.0 | 0.00 | 0.00 | 0.00 | 92 | 1011.7 |
| 20260507122025 | 4 | 40 | 0.0 | 0.0 | 0.00 | 0.00 | 0.00 | 92 | 1011.8 |
| 20260507121536 | 4 | 40 | 0.0 | 0.0 | 0.00 | 0.00 | 0.00 | 92 | 1011.7 |
| 20260507121025 | 4 | 40 | 0.0 | 0.0 | 0.00 | 0.00 | 0.00 | 92 | 1011.7 |
| 20260507120524 | 5 | 39 | 0.0 | 0.0 | 0.00 | 0.00 | 0.00 | 93 | 1011.8 |
| 20260507120024 | 5 | 309 | 0.0 | 0.0 | 0.00 | 0.00 | 0.00 | 93 | 1011.9 |
| 20260507115524 | 5 | 304 | 0.0 | 0.0 | 0.00 | 0.00 | 0.00 | 93 | 1012.0 |
| 20260507115024 | 5 | 304 | 0.0 | 0.0 | 0.00 | 0.00 | 0.00 | 93 | 1011.9 |
| 20260507114524 | 5 | 304 | 0.0 | 0.0 | 0.00 | 0.00 | 0.00 | 93 | 1012.0 |
| 20260507114026 | 5 | 304 | 0.0 | 0.0 | 0.00 | 0.00 | 0.00 | 93 | 1012.0 |
| 20260507113524 | 5 | 304 | 0.0 | 0.0 | 0.00 | 0.00 | 0.00 | 93 | 1012.1 |
| 20260507113033 | 5 | 304 | 0.0 | 0.0 | 0.00 | 0.00 | 0.00 | 93 | 1012.1 |
| 20260507112523 | 5 | 304 | 0.0 | 0.0 | 0.00 | 0.00 | 0.00 | 93 | 1012.1 |
| 20260507112023 | 5 | 304 | 0.0 | 0.0 | 0.00 | 0.00 | 0.00 | 94 | 1012.0 |
| 20260507111524 | 5 | 305 | 0.0 | 0.0 | 0.00 | 0.00 | 0.00 | 93 | 1011.9 |
| 20260507111022 | 5 | 305 | 0.0 | 0.0 | 0.00 | 0.00 | 0.00 | 93 | 1011.8 |
| 20260507110521 | 4 | 305 | 0.0 | 0.0 | 0.00 | 0.00 | 0.00 | 93 | 1011.4 |
| 20260507110027 | 4 | 305 | 0.0 | 0.0 | 0.00 | 0.00 | 0.00 | 93 | 1011.4 |
| 20260507105520 | 4 | 305 | 0.0 | 0.0 | 0.00 | 0.00 | 0.00 | 93 | 1011.3 |
| 20260507105021 | 4 | 305 | 0.0 | 0.0 | 0.00 | 0.00 | 0.00 | 93 | 1011.2 |
| 20260507104521 | 4 | 305 | 0.0 | 0.0 | 0.00 | 0.00 | 0.00 | 93 | 1011.1 |
| 20260507104024 | 3 | 305 | 0.0 | 0.0 | 0.00 | 0.00 | 0.00 | 92 | 1011.2 |
| 20260507103521 | 3 | 305 | 0.0 | 0.0 | 0.00 | 0.00 | 0.00 | 92 | 1011.1 |
| 20260507103020 | 3 | 305 | 0.0 | 0.0 | 0.00 | 0.00 | 0.00 | 92 | 1011.1 |
| 20260507102521 | 3 | 305 | 0.0 | 0.0 | 0.00 | 0.00 | 0.00 | 92 | 1011.0 |
| 20260507102021 | 3 | 305 | 0.0 | 0.0 | 0.00 | 0.00 | 0.00 | 92 | 1011.0 |
| 20260507101527 | 3 | 305 | 0.0 | 0.0 | 0.00 | 0.00 | 0.00 | 92 | 1011.0 |
| 20260507101020 | 3 | 305 | 0.0 | 0.0 | 0.00 | 0.00 | 0.00 | 92 | 1011.0 |
| 20260507100519 | 3 | 305 | 0.0 | 0.0 | 0.00 | 0.00 | 0.00 | 92 | 1011.0 |
| 20260507100026 | 3 | 305 | 0.0 | 0.0 | 0.00 | 0.00 | 0.00 | 92 | 1011.1 |
| 20260507095519 | 3 | 305 | 0.0 | 0.0 | 0.00 | 0.00 | 0.00 | 92 | 1011.0 |
| 20260507095019 | 3 | 305 | 0.0 | 0.0 | 0.00 | 0.00 | 0.00 | 92 | 1011.1 |
| 20260507094522 | 3 | 305 | 0.0 | 0.0 | 0.00 | 0.00 | 0.00 | 92 | 1011.0 |
| 20260507094018 | 3 | 305 | 0.0 | 0.0 | 0.00 | 0.00 | 0.00 | 92 | 1011.1 |
| 20260507093519 | 3 | 305 | 0.0 | 0.0 | 0.00 | 0.00 | 0.00 | 91 | 1010.9 |
| 20260507093033 | 3 | 305 | 0.0 | 0.0 | 0.00 | 0.00 | 0.00 | 91 | 1011.0 |
| 20260507092519 | 3 | 305 | 0.0 | 0.0 | 0.00 | 0.00 | 0.00 | 91 | 1011.0 |
| 20260507092017 | 3 | 305 | 0.0 | 0.0 | 0.00 | 0.00 | 0.00 | 91 | 1011.0 |
| 20260507091517 | 3 | 305 | 0.0 | 0.0 | 0.00 | 0.00 | 0.00 | 91 | 1010.9 |
| 20260507091017 | 3 | 305 | 0.0 | 0.0 | 0.00 | 0.00 | 0.00 | 91 | 1010.8 |
| 20260507090517 | 3 | 305 | 0.0 | 0.0 | 0.00 | 0.00 | 0.00 | 91 | 1011.0 |
| 20260507090028 | 3 | 305 | 0.0 | 0.0 | 0.00 | 0.00 | 0.00 | 91 | 1011.0 |
| 20260507085516 | 3 | 305 | 0.0 | 0.0 | 0.00 | 0.00 | 0.00 | 91 | 1011.0 |
| 20260507085017 | 3 | 305 | 0.0 | 0.0 | 0.00 | 0.00 | 0.00 | 91 | 1011.0 |
| 20260507084516 | 3 | 305 | 0.0 | 0.0 | 0.00 | 0.00 | 0.00 | 90 | 1010.9 |
| 20260507084017 | 3 | 305 | 0.0 | 0.0 | 0.00 | 0.00 | 0.00 | 91 | 1010.8 |
| 20260507083515 | 3 | 305 | 0.0 | 0.0 | 0.00 | 0.00 | 0.00 | 91 | 1010.8 |
| 20260507083031 | 3 | 305 | 0.0 | 0.0 | 0.00 | 0.00 | 0.00 | 91 | 1010.9 |
| 20260507082512 | 3 | 305 | 0.0 | 0.0 | 0.00 | 0.00 | 0.00 | 90 | 1010.9 |
| 20260507082013 | 3 | 305 | 0.0 | 0.0 | 0.00 | 0.00 | 0.00 | 91 | 1010.9 |
| 20260507081513 | 3 | 305 | 0.0 | 0.0 | 0.00 | 0.00 | 0.00 | 91 | 1010.9 |
| 20260507081011 | 3 | 305 | 0.0 | 0.0 | 0.00 | 0.00 | 0.00 | 91 | 1010.7 |
| 20260507080511 | 3 | 305 | 0.0 | 0.0 | 0.00 | 0.00 | 0.00 | 91 | 1010.8 |
| 20260507080011 | 3 | 305 | 0.0 | 0.0 | 0.00 | 0.00 | 0.00 | 91 | 1010.8 |
| 20260507075511 | 3 | 305 | 0.0 | 0.0 | 0.00 | 0.00 | 0.00 | 91 | 1010.8 |
| 20260507075011 | 3 | 305 | 0.0 | 0.0 | 0.00 | 0.00 | 0.00 | 91 | 1010.8 |
| 20260507074524 | 3 | 305 | 0.0 | 0.0 | 0.00 | 0.00 | 0.00 | 91 | 1010.8 |
| 20260507074010 | 3 | 305 | 0.0 | 0.0 | 0.00 | 0.00 | 0.00 | 90 | 1010.8 |
| 20260507073512 | 3 | 305 | 0.0 | 0.0 | 0.00 | 0.00 | 0.00 | 90 | 1010.8 |
| 20260507073009 | 3 | 305 | 0.0 | 0.0 | 0.00 | 0.00 | 0.00 | 90 | 1010.8 |
| 20260507072509 | 3 | 305 | 0.0 | 0.0 | 0.00 | 0.00 | 0.00 | 90 | 1010.7 |
| 20260507072008 | 3 | 305 | 0.0 | 0.0 | 0.00 | 0.00 | 0.00 | 90 | 1010.7 |
| 20260507071508 | 4 | 305 | 0.0 | 0.0 | 0.00 | 0.00 | 0.00 | 90 | 1010.9 |
| 20260507071008 | 4 | 305 | 0.0 | 0.0 | 0.00 | 0.00 | 0.00 | 90 | 1010.9 |
| 20260507070507 | 4 | 305 | 0.0 | 0.0 | 0.00 | 0.00 | 0.00 | 90 | 1010.8 |
| 20260507070011 | 4 | 305 | 0.0 | 0.0 | 0.00 | 0.00 | 0.00 | 89 | 1010.8 |
| 20260507065507 | 4 | 305 | 0.0 | 0.0 | 0.00 | 0.00 | 0.00 | 90 | 1010.8 |
| 20260507065005 | 5 | 305 | 0.0 | 0.0 | 0.00 | 0.00 | 0.00 | 89 | 1010.8 |
| 20260507064505 | 5 | 305 | 0.0 | 0.0 | 0.00 | 0.00 | 0.00 | 89 | 1010.9 |
| 20260507064001 | 5 | 305 | 0.0 | 0.0 | 0.00 | 0.00 | 0.00 | 89 | 1011.2 |
| 20260507063500 | 5 | 305 | 0.0 | 0.0 | 0.00 | 0.00 | 0.00 | 89 | 1011.2 |
| 20260507063102 | 5 | 305 | 0.0 | 0.0 | 0.00 | 0.00 | 0.00 | 89 | 1011.2 |
| 20260507062559 | 5 | 305 | 0.0 | 0.0 | 0.00 | 0.00 | 0.00 | 89 | 1011.3 |
| 20260507062059 | 5 | 305 | 0.0 | 0.0 | 0.00 | 0.00 | 0.00 | 89 | 1011.3 |
| 20260507061558 | 5 | 305 | 0.0 | 0.0 | 0.00 | 0.00 | 0.00 | 89 | 1011.4 |
| 20260507061056 | 5 | 305 | 0.0 | 0.0 | 0.00 | 0.00 | 0.00 | 89 | 1011.3 |
| 20260507060556 | 5 | 305 | 0.0 | 0.0 | 0.00 | 0.00 | 0.00 | 89 | 1011.2 |
| 20260507060055 | 6 | 305 | 0.0 | 0.0 | 0.00 | 0.00 | 0.00 | 89 | 1011.3 |
| 20260507055555 | 6 | 305 | 0.0 | 0.0 | 0.00 | 0.00 | 0.00 | 89 | 1011.2 |
| 20260507055054 | 6 | 305 | 0.0 | 0.0 | 0.00 | 0.00 | 0.00 | 89 | 1011.2 |
| 20260507054604 | 6 | 305 | 0.0 | 0.0 | 0.00 | 0.00 | 0.00 | 89 | 1011.4 |
| 20260507054053 | 6 | 305 | 0.0 | 0.0 | 0.00 | 0.00 | 0.00 | 89 | 1011.5 |
| 20260507053552 | 6 | 305 | 0.0 | 0.0 | 0.00 | 0.00 | 0.00 | 89 | 1011.4 |
| 20260507053055 | 6 | 305 | 0.0 | 0.0 | 0.00 | 0.00 | 0.00 | 89 | 1011.5 |
| 20260507052554 | 6 | 305 | 0.0 | 0.0 | 0.00 | 0.00 | 0.00 | 88 | 1011.5 |
| 20260507052050 | 6 | 305 | 0.0 | 0.0 | 0.00 | 0.00 | 0.00 | 88 | 1011.6 |
| 20260507051550 | 6 | 305 | 0.0 | 0.0 | 0.00 | 0.00 | 0.00 | 88 | 1011.7 |
| 20260507051048 | 6 | 305 | 0.0 | 0.0 | 0.00 | 0.00 | 0.00 | 88 | 1011.6 |
| 20260507050549 | 6 | 305 | 0.0 | 0.0 | 0.00 | 0.00 | 0.00 | 88 | 1011.6 |
| 20260507050048 | 6 | 305 | 0.0 | 0.0 | 0.00 | 0.00 | 0.00 | 88 | 1011.7 |
| 20260507045549 | 6 | 305 | 0.0 | 0.0 | 0.00 | 0.00 | 0.00 | 88 | 1011.8 |
| 20260507045048 | 6 | 305 | 0.0 | 0.0 | 0.00 | 0.00 | 0.00 | 88 | 1011.9 |
| 20260507044546 | 6 | 305 | 0.0 | 0.0 | 0.00 | 0.00 | 0.00 | 88 | 1011.7 |
| 20260507044047 | 6 | 305 | 0.0 | 0.0 | 0.00 | 0.00 | 0.00 | 88 | 1011.7 |
| 20260507043546 | 6 | 305 | 0.0 | 0.0 | 0.00 | 0.00 | 0.00 | 88 | 1011.7 |
| 20260507043046 | 6 | 305 | 0.0 | 0.0 | 0.00 | 0.00 | 0.00 | 88 | 1011.8 |
| 20260507042546 | 6 | 305 | 0.0 | 0.0 | 0.00 | 0.00 | 0.00 | 88 | 1011.8 |
| 20260507042045 | 6 | 305 | 0.0 | 0.0 | 0.00 | 0.00 | 0.00 | 88 | 1011.8 |
| 20260507041545 | 6 | 305 | 0.0 | 0.0 | 0.00 | 0.00 | 0.00 | 88 | 1011.8 |
| 20260507041044 | 6 | 305 | 0.0 | 0.0 | 0.00 | 0.00 | 0.00 | 88 | 1011.8 |
| 20260507040544 | 6 | 305 | 0.0 | 0.0 | 0.00 | 0.00 | 0.00 | 88 | 1011.8 |
| 20260507040056 | 6 | 305 | 0.0 | 0.0 | 0.00 | 0.00 | 0.00 | 88 | 1011.8 |
| 20260507035542 | 6 | 305 | 0.0 | 0.0 | 0.00 | 0.00 | 1.07 | 88 | 1011.6 |
| 20260507035042 | 6 | 305 | 0.0 | 0.0 | 0.00 | 0.00 | 1.07 | 88 | 1011.8 |
| 20260507034553 | 6 | 305 | 0.0 | 0.0 | 0.00 | 0.00 | 1.07 | 88 | 1011.8 |
| 20260507034042 | 6 | 305 | 0.0 | 0.0 | 0.00 | 0.00 | 1.07 | 88 | 1011.6 |
| 20260507033542 | 6 | 305 | 0.0 | 0.0 | 0.00 | 0.00 | 1.07 | 88 | 1011.7 |
| 20260507033044 | 6 | 305 | 0.0 | 0.0 | 0.00 | 0.00 | 1.07 | 88 | 1011.7 |
| 20260507032544 | 6 | 305 | 0.0 | 0.0 | 0.00 | 0.00 | 1.07 | 88 | 1011.5 |
| 20260507032041 | 6 | 305 | 0.0 | 0.0 | 0.00 | 0.00 | 1.07 | 88 | 1011.4 |
| 20260507031542 | 6 | 305 | 0.0 | 0.0 | 0.00 | 0.00 | 1.07 | 88 | 1011.4 |
| 20260507031041 | 6 | 305 | 0.0 | 0.0 | 0.00 | 0.00 | 1.07 | 88 | 1011.5 |
| 20260507030541 | 6 | 305 | 0.0 | 0.0 | 0.00 | 0.00 | 1.07 | 88 | 1011.6 |
| 20260507030041 | 6 | 305 | 0.0 | 0.0 | 0.00 | 0.00 | 1.07 | 88 | 1011.6 |
| 20260507025540 | 6 | 305 | 0.0 | 0.0 | 0.00 | 0.00 | 1.07 | 88 | 1011.7 |
| 20260507025041 | 6 | 317 | 0.0 | 0.0 | 0.00 | 0.00 | 1.07 | 87 | 1011.5 |
| 20260507024541 | 6 | 317 | 0.0 | 0.0 | 0.00 | 0.00 | 1.07 | 88 | 1011.4 |
| 20260507024041 | 6 | 317 | 0.0 | 0.0 | 0.00 | 0.00 | 1.07 | 87 | 1011.4 |
| 20260507023540 | 6 | 317 | 0.0 | 0.0 | 0.00 | 0.00 | 1.07 | 87 | 1011.3 |
| 20260507023040 | 6 | 317 | 0.0 | 0.0 | 0.00 | 0.00 | 1.07 | 87 | 1011.4 |
| 20260507022540 | 6 | 317 | 0.0 | 0.0 | 0.00 | 0.00 | 1.07 | 88 | 1011.3 |
| 20260507022040 | 6 | 317 | 0.0 | 0.0 | 0.00 | 0.00 | 1.07 | 88 | 1011.4 |
| 20260507021544 | 6 | 317 | 0.0 | 0.0 | 0.00 | 0.00 | 1.07 | 88 | 1011.6 |
| 20260507021039 | 6 | 317 | 0.0 | 0.0 | 0.00 | 0.00 | 1.07 | 88 | 1011.4 |
| 20260507020540 | 6 | 317 | 0.0 | 0.0 | 0.00 | 0.00 | 1.07 | 88 | 1011.6 |
| 20260507020040 | 6 | 317 | 0.0 | 0.0 | 0.00 | 0.00 | 1.07 | 88 | 1011.8 |
| 20260507015539 | 6 | 317 | 0.0 | 0.0 | 0.00 | 0.00 | 1.07 | 88 | 1011.8 |
| 20260507015039 | 6 | 317 | 0.0 | 0.0 | 0.00 | 0.00 | 1.07 | 88 | 1011.9 |
| 20260507014539 | 6 | 317 | 0.0 | 0.0 | 0.00 | 0.00 | 1.07 | 88 | 1011.9 |
| 20260507014038 | 6 | 317 | 0.0 | 0.0 | 0.00 | 0.00 | 1.07 | 88 | 1011.8 |
| 20260507013542 | 6 | 344 | 0.0 | 0.0 | 0.00 | 0.00 | 1.07 | 88 | 1011.8 |
| 20260507013039 | 6 | 344 | 0.0 | 0.0 | 0.00 | 0.00 | 1.07 | 88 | 1011.8 |
| 20260507012537 | 6 | 344 | 0.0 | 0.0 | 0.00 | 0.00 | 1.07 | 88 | 1011.7 |
| 20260507012037 | 6 | 344 | 0.0 | 0.0 | 0.00 | 0.00 | 1.07 | 88 | 1011.6 |
| 20260507011540 | 6 | 344 | 0.0 | 0.0 | 0.00 | 0.00 | 1.07 | 88 | 1011.5 |
| 20260507011035 | 6 | 344 | 0.0 | 0.0 | 0.00 | 0.00 | 1.07 | 88 | 1011.5 |
| 20260507010535 | 6 | 344 | 0.0 | 0.0 | 0.00 | 0.00 | 1.07 | 87 | 1011.5 |
| 20260507010035 | 6 | 344 | 0.0 | 0.0 | 0.00 | 0.00 | 1.07 | 88 | 1011.4 |
| 20260507005534 | 6 | 344 | 0.0 | 0.0 | 0.00 | 0.00 | 1.07 | 87 | 1011.3 |
| 20260507005037 | 6 | 344 | 0.0 | 0.0 | 0.00 | 0.00 | 1.07 | 87 | 1011.3 |
| 20260507004534 | 6 | 344 | 0.0 | 0.0 | 0.00 | 0.00 | 1.07 | 87 | 1011.2 |
| 20260507004033 | 6 | 344 | 0.0 | 0.0 | 0.00 | 0.00 | 1.07 | 87 | 1011.3 |
| 20260507003535 | 6 | 344 | 0.0 | 0.0 | 0.00 | 0.00 | 1.07 | 87 | 1011.2 |
| 20260507003032 | 6 | 344 | 0.0 | 0.0 | 0.00 | 0.00 | 1.07 | 87 | 1011.1 |
| 20260507002532 | 6 | 344 | 0.0 | 0.0 | 0.00 | 0.00 | 1.07 | 88 | 1011.0 |
| 20260507002031 | 6 | 344 | 0.0 | 0.0 | 0.00 | 0.00 | 1.07 | 87 | 1011.0 |
| 20260507001541 | 6 | 344 | 0.0 | 0.0 | 0.00 | 0.00 | 1.07 | 87 | 1011.0 |
| 20260507001030 | 6 | 344 | 0.0 | 0.0 | 0.00 | 0.00 | 1.07 | 87 | 1010.9 |
| 20260507000530 | 6 | 344 | 0.0 | 0.0 | 0.00 | 0.00 | 1.07 | 88 | 1010.8 |
| 20260507000030 | 6 | 344 | 0.0 | 0.0 | 0.00 | 0.00 | 1.07 | 88 | 1010.8 |
| 20260506235530 | 6 | 345 | 0.0 | 0.0 | 0.00 | 0.00 | 1.07 | 88 | 1010.8 |
| 20260506235031 | 6 | 344 | 0.0 | 0.0 | 0.00 | 0.00 | 1.07 | 88 | 1010.8 |
| 20260506234540 | 6 | 344 | 0.0 | 0.0 | 0.00 | 0.00 | 1.07 | 88 | 1010.8 |
| 20260506234029 | 6 | 345 | 0.0 | 0.0 | 0.00 | 0.00 | 1.07 | 88 | 1010.6 |
| 20260506233529 | 6 | 355 | 0.0 | 0.0 | 0.00 | 0.00 | 1.07 | 89 | 1010.7 |
| 20260506233029 | 6 | 323 | 0.0 | 0.0 | 0.00 | 0.00 | 1.07 | 89 | 1010.7 |
| 20260506232529 | 6 | 306 | 0.0 | 0.0 | 0.00 | 0.00 | 1.07 | 89 | 1010.8 |
| 20260506232028 | 6 | 306 | 0.0 | 0.0 | 0.00 | 0.00 | 1.07 | 89 | 1010.8 |
| 20260506231534 | 6 | 300 | 0.0 | 0.0 | 0.00 | 0.00 | 1.07 | 89 | 1010.8 |
| 20260506231027 | 6 | 291 | 0.0 | 0.0 | 0.00 | 0.00 | 1.07 | 89 | 1010.7 |
| 20260506230525 | 6 | 316 | 0.0 | 0.0 | 0.00 | 0.00 | 1.07 | 89 | 1010.6 |
| 20260506230026 | 6 | 325 | 0.0 | 0.0 | 0.00 | 0.00 | 1.07 | 90 | 1010.5 |
| 20260506225525 | 6 | 343 | 0.0 | 0.0 | 0.00 | 0.00 | 1.07 | 90 | 1010.3 |
| 20260506225025 | 6 | 306 | 0.0 | 0.0 | 0.00 | 0.00 | 1.07 | 90 | 1010.3 |
| 20260506224529 | 6 | 285 | 0.0 | 0.0 | 0.00 | 0.00 | 1.07 | 90 | 1010.3 |
| 20260506224024 | 6 | 324 | 0.0 | 0.0 | 0.00 | 0.00 | 1.07 | 90 | 1010.2 |
| 20260506223525 | 6 | 328 | 0.0 | 0.0 | 0.00 | 0.00 | 1.07 | 90 | 1010.1 |
| 20260506223023 | 6 | 10 | 0.0 | 0.0 | 0.00 | 0.00 | 1.07 | 90 | 1010.0 |
| 20260506222523 | 6 | 355 | 0.0 | 0.0 | 0.00 | 0.00 | 1.07 | 90 | 1010.0 |
| 20260506222023 | 6 | 349 | 0.0 | 0.0 | 0.00 | 0.00 | 1.07 | 90 | 1010.0 |
| 20260506221523 | 6 | 344 | 0.0 | 0.0 | 0.00 | 0.00 | 1.07 | 90 | 1010.0 |
| 20260506221021 | 6 | 312 | 0.0 | 0.0 | 0.00 | 0.00 | 1.07 | 90 | 1009.7 |
| 20260506220521 | 6 | 273 | 0.0 | 0.0 | 0.00 | 0.00 | 1.07 | 90 | 1009.8 |
| 20260506220021 | 6 | 306 | 0.0 | 0.0 | 0.00 | 0.00 | 1.07 | 90 | 1009.8 |
| 20260506215520 | 6 | 329 | 0.0 | 0.0 | 0.00 | 0.00 | 1.07 | 90 | 1009.8 |
| 20260506215019 | 6 | 300 | 0.0 | 0.0 | 0.00 | 0.00 | 1.07 | 90 | 1009.8 |
| 20260506214519 | 6 | 323 | 0.0 | 0.0 | 0.00 | 0.00 | 1.07 | 90 | 1009.7 |
| 20260506214019 | 6 | 304 | 0.0 | 0.0 | 0.00 | 0.00 | 1.07 | 90 | 1009.7 |
| 20260506213519 | 6 | 308 | 0.0 | 0.0 | 0.00 | 0.00 | 1.07 | 90 | 1009.6 |
| 20260506213021 | 6 | 274 | 0.0 | 0.0 | 0.00 | 0.00 | 1.07 | 89 | 1009.7 |
| 20260506212520 | 6 | 313 | 0.0 | 0.0 | 0.00 | 0.00 | 1.07 | 89 | 1009.6 |
| 20260506212016 | 6 | 298 | 0.0 | 0.0 | 0.00 | 0.00 | 1.07 | 89 | 1009.4 |
| 20260506211518 | 6 | 300 | 0.0 | 0.0 | 0.00 | 0.00 | 1.07 | 88 | 1009.2 |
| 20260506211013 | 7 | 273 | 0.0 | 0.0 | 0.00 | 0.00 | 1.07 | 88 | 1009.0 |
| 20260506210513 | 7 | 274 | 0.0 | 0.0 | 0.00 | 0.00 | 1.07 | 87 | 1008.9 |
| 20260506210015 | 7 | 312 | 0.0 | 0.0 | 0.00 | 0.00 | 1.07 | 87 | 1008.9 |
| 20260506205512 | 7 | 268 | 0.0 | 0.0 | 0.00 | 0.00 | 1.07 | 86 | 1008.9 |
| 20260506205011 | 8 | 316 | 0.0 | 0.0 | 0.00 | 0.00 | 1.07 | 85 | 1008.7 |
| 20260506204511 | 8 | 298 | 0.0 | 0.0 | 0.00 | 0.00 | 1.07 | 84 | 1008.6 |
| 20260506204014 | 9 | 288 | 0.0 | 0.0 | 0.00 | 0.00 | 1.07 | 83 | 1008.6 |
| 20260506203510 | 10 | 250 | 0.0 | 0.0 | 0.00 | 0.00 | 1.07 | 81 | 1008.5 |
| 20260506203009 | 10 | 259 | 0.0 | 0.0 | 0.00 | 0.00 | 1.07 | 80 | 1008.3 |
| 20260506202509 | 10 | 209 | 0.0 | 0.0 | 0.00 | 0.00 | 1.07 | 80 | 1008.2 |
| 20260506202009 | 10 | 192 | 0.0 | 0.0 | 0.00 | 0.00 | 1.07 | 80 | 1008.1 |
| 20260506201510 | 10 | 231 | 0.0 | 0.0 | 0.00 | 0.00 | 1.07 | 80 | 1008.1 |
| 20260506201009 | 10 | 205 | 0.0 | 0.0 | 0.00 | 0.00 | 1.07 | 79 | 1008.2 |
| 20260506200508 | 10 | 238 | 0.0 | 0.0 | 0.00 | 0.00 | 1.07 | 80 | 1008.2 |
| 20260506200011 | 11 | 232 | 0.0 | 0.0 | 0.00 | 0.00 | 1.07 | 80 | 1008.3 |
| 20260506195508 | 11 | 233 | 0.0 | 0.0 | 0.00 | 0.00 | 1.07 | 80 | 1008.2 |
| 20260506195008 | 11 | 241 | 0.0 | 0.0 | 0.00 | 0.00 | 1.07 | 81 | 1008.1 |
| 20260506194508 | 10 | 222 | 0.0 | 0.0 | 0.00 | 0.00 | 1.07 | 81 | 1008.2 |
| 20260506194009 | 10 | 233 | 0.0 | 0.0 | 0.00 | 0.00 | 1.07 | 82 | 1008.3 |
| 20260506193508 | 10 | 227 | 0.0 | 0.0 | 0.00 | 0.00 | 1.07 | 82 | 1008.3 |
| 20260506193008 | 10 | 247 | 0.0 | 0.0 | 0.00 | 0.00 | 1.07 | 81 | 1008.2 |
| 20260506192508 | 10 | 264 | 0.0 | 0.0 | 0.00 | 0.00 | 1.07 | 82 | 1008.2 |
| 20260506192008 | 10 | 293 | 0.0 | 0.0 | 0.00 | 0.00 | 1.07 | 81 | 1008.2 |
| 20260506191510 | 10 | 293 | 0.0 | 0.0 | 0.00 | 0.00 | 1.07 | 81 | 1008.1 |
| 20260506191007 | 10 | 293 | 0.0 | 0.0 | 0.00 | 0.00 | 1.07 | 80 | 1008.2 |
| 20260506190507 | 11 | 293 | 0.0 | 0.0 | 0.00 | 0.00 | 1.07 | 80 | 1008.1 |
| 20260506190007 | 11 | 293 | 0.0 | 0.0 | 0.00 | 0.00 | 1.07 | 78 | 1008.0 |
| 20260506185506 | 11 | 293 | 0.0 | 0.0 | 0.00 | 0.00 | 1.07 | 78 | 1007.9 |
| 20260506185006 | 11 | 298 | 0.0 | 0.0 | 0.00 | 0.00 | 1.07 | 79 | 1008.0 |
| 20260506184506 | 11 | 298 | 0.0 | 0.0 | 0.00 | 0.00 | 1.07 | 80 | 1008.0 |
| 20260506184005 | 11 | 298 | 0.0 | 0.0 | 0.00 | 0.00 | 1.07 | 80 | 1008.0 |
| 20260506183505 | 11 | 298 | 0.0 | 0.0 | 0.00 | 0.00 | 1.07 | 82 | 1008.0 |
| 20260506183002 | 11 | 298 | 0.0 | 0.0 | 0.00 | 0.00 | 1.07 | 84 | 1008.0 |
| 20260506182501 | 10 | 298 | 0.0 | 0.0 | 0.00 | 0.00 | 1.07 | 83 | 1008.0 |
| 20260506182001 | 10 | 298 | 0.0 | 0.0 | 0.00 | 0.00 | 1.07 | 84 | 1008.0 |
| 20260506181502 | 10 | 298 | 0.0 | 0.0 | 0.00 | 0.00 | 1.07 | 85 | 1008.1 |
| 20260506181100 | 10 | 298 | 0.0 | 0.0 | 0.00 | 0.00 | 1.07 | 86 | 1008.1 |
| 20260506180559 | 10 | 298 | 0.0 | 0.0 | 0.00 | 0.00 | 1.07 | 86 | 1008.1 |
| 20260506180059 | 10 | 298 | 0.0 | 0.0 | 0.00 | 0.00 | 1.07 | 85 | 1008.1 |
| 20260506175559 | 10 | 298 | 0.0 | 0.0 | 0.00 | 0.00 | 1.07 | 87 | 1008.1 |
| 20260506175057 | 10 | 298 | 0.0 | 0.0 | 0.00 | 0.00 | 1.07 | 87 | 1008.1 |
| 20260506174608 | 10 | 73 | 0.0 | 0.0 | 0.00 | 0.00 | 1.07 | 88 | 1008.1 |
| 20260506174056 | 9 | 73 | 0.0 | 0.0 | 0.00 | 0.00 | 1.07 | 88 | 1008.1 |
| 20260506173558 | 9 | 73 | 0.0 | 0.0 | 0.00 | 0.00 | 1.07 | 88 | 1008.2 |
| 20260506173057 | 9 | 73 | 0.0 | 0.0 | 0.00 | 0.00 | 1.07 | 89 | 1008.1 |
| 20260506172554 | 9 | 73 | 0.0 | 0.0 | 0.00 | 0.00 | 1.07 | 89 | 1008.2 |
| 20260506172054 | 9 | 73 | 0.0 | 0.0 | 0.00 | 0.00 | 1.07 | 90 | 1008.3 |
| 20260506171604 | 9 | 73 | 0.0 | 0.0 | 0.00 | 0.00 | 1.07 | 90 | 1008.2 |
| 20260506171054 | 9 | 73 | 0.0 | 0.0 | 0.00 | 0.00 | 1.07 | 90 | 1008.3 |
| 20260506170553 | 9 | 73 | 0.0 | 0.0 | 0.00 | 0.00 | 1.07 | 90 | 1008.2 |
| 20260506170053 | 9 | 72 | 0.0 | 0.0 | 0.00 | 0.00 | 1.07 | 90 | 1008.2 |
| 20260506165555 | 9 | 72 | 0.0 | 0.0 | 0.00 | 0.00 | 1.07 | 90 | 1008.2 |
| 20260506165053 | 9 | 72 | 0.0 | 0.0 | 0.00 | 0.00 | 1.07 | 91 | 1008.1 |
| 20260506164557 | 9 | 72 | 0.0 | 0.0 | 0.00 | 0.00 | 1.07 | 91 | 1008.2 |
| 20260506164051 | 9 | 72 | 0.0 | 0.0 | 0.00 | 0.00 | 1.07 | 91 | 1008.1 |
| 20260506163553 | 9 | 72 | 0.0 | 0.0 | 0.00 | 0.00 | 1.07 | 92 | 1008.2 |
| 20260506163104 | 9 | 72 | 0.0 | 0.0 | 0.00 | 0.00 | 1.07 | 91 | 1007.9 |
| 20260506162553 | 9 | 72 | 0.0 | 0.0 | 0.00 | 0.00 | 1.07 | 92 | 1007.9 |
| 20260506162052 | 9 | 72 | 0.0 | 0.0 | 0.00 | 0.00 | 1.07 | 92 | 1008.0 |
| 20260506161550 | 8 | 74 | 0.0 | 0.0 | 0.00 | 0.00 | 1.07 | 91 | 1008.2 |
| 20260506161050 | 8 | 74 | 0.0 | 0.0 | 0.00 | 0.00 | 1.07 | 91 | 1008.2 |
| 20260506160549 | 8 | 74 | 0.0 | 0.0 | 0.00 | 0.00 | 1.07 | 91 | 1008.2 |
| 20260506160051 | 8 | 74 | 0.0 | 0.0 | 0.00 | 0.00 | 1.07 | 91 | 1008.1 |
| 20260506155548 | 8 | 74 | 0.0 | 0.0 | 0.00 | 0.00 | 1.07 | 92 | 1008.1 |
| 20260506155048 | 8 | 74 | 0.0 | 0.0 | 0.00 | 0.00 | 1.07 | 92 | 1008.1 |
| 20260506154552 | 9 | 74 | 0.0 | 0.0 | 0.00 | 0.00 | 1.07 | 92 | 1008.0 |
| 20260506154050 | 9 | 74 | 0.0 | 0.0 | 0.00 | 0.00 | 1.07 | 92 | 1008.0 |
| 20260506153547 | 8 | 74 | 0.0 | 0.0 | 0.00 | 0.00 | 1.07 | 93 | 1008.0 |
| 20260506153050 | 8 | 74 | 0.0 | 0.0 | 0.00 | 0.00 | 1.07 | 93 | 1008.0 |
| 20260506152546 | 8 | 74 | 0.0 | 0.0 | 0.00 | 0.00 | 1.07 | 93 | 1007.9 |
| 20260506152045 | 8 | 74 | 0.0 | 0.0 | 0.00 | 0.00 | 1.07 | 93 | 1007.8 |